Dumas, TX

6:20 PM CDT on April 26, 2018 (GMT -0500)
Moore County

Weather History for KDUX - April, 2013

Change the Weather History Date:

Thursday, April 4, 2013

  Actual Average (KDHT) Record (KDHT)
Temperature  
Mean Temperature 46 °F -  
Max Temperature 68 °F 62 °F 89 °F (1967)
Min Temperature 24 °F 34 °F 16 °F (1979)
Degree Days  
Heating Degree Days 20    
Moisture  
Dew Point 30 °F    
Average Humidity 61    
Maximum Humidity 97    
Minimum Humidity 22    
Precipitation  
Precipitation 0.00 in - - ()
Sea Level Pressure  
Sea Level Pressure 30.15 in    
Wind  
Wind Speed 5 mph (ENE)    
Max Wind Speed 10 mph    
Max Gust Speed 16 mph    
Visibility 9 miles    
Events      
Averages and records for this station are not official NWS values.
T = Trace of Precipitation, MM = Missing Value Source: NWS Daily Summary

Daily Weather History Graph

Daily Weather History Graph

Search for Another Location

Airport or City:

Astronomy

Apr. 04, 2013 Rise Set
Actual Time 7:29 AM CDT 8:12 PM CDT
Civil Twilight 7:03 AM CDT 8:38 PM CDT
Nautical Twilight 6:33 AM CDT 9:09 PM CDT
Astronomical Twilight 6:02 AM CDT 9:40 PM CDT
Moon 3:47 AM CDT (4/4) 2:43 PM CDT (4/4)
Length of Visible Light 13h 34m
Length of Day
12h 42m
Waning Crescent, 33% of the Moon is Illuminated
Apr 4
Waning Crescent
Apr 10
New
Apr 18
First Quarter
Apr 25
Full
May 2
Last Quarter

Hourly Weather History & Observations

Time (CDT) Temp. Windchill Dew Point Humidity Pressure Visibility Wind Dir Wind Speed Gust Speed Precip Events Conditions
12:15 AM 34.7 °F 31.8 °F 30.9 °F 86% 30.19 in 10.0 mi North 3.5 mph - N/A   Overcast
12:35 AM 34.7 °F - 31.3 °F 87% 30.19 in 10.0 mi Calm Calm - N/A   Overcast
12:55 AM 34.3 °F 31.4 °F 31.6 °F 90% 30.19 in 10.0 mi NE 3.5 mph - N/A   Overcast
1:15 AM 34.5 °F - 31.3 °F 88% 30.19 in 10.0 mi Calm Calm - N/A   Overcast
1:35 AM 34.3 °F 30.2 °F 31.3 °F 89% 30.18 in 10.0 mi ENE 4.6 mph - N/A   Overcast
1:55 AM 34.2 °F - 31.3 °F 89% 30.19 in 10.0 mi Calm Calm - N/A   Overcast
2:15 AM 34.7 °F 31.8 °F 31.1 °F 87% 30.18 in 10.0 mi North 3.5 mph - N/A   Overcast
2:35 AM 34.7 °F 31.8 °F 31.1 °F 87% 30.19 in 10.0 mi NW 3.5 mph - N/A   Overcast
2:55 AM 34.5 °F - 31.1 °F 87% 30.18 in 10.0 mi Calm Calm - N/A   Overcast
3:15 AM 34.0 °F 31.0 °F 30.9 °F 89% 30.17 in 10.0 mi NW 3.5 mph - N/A   Overcast
3:35 AM 33.1 °F - 30.4 °F 90% 30.16 in 10.0 mi Calm Calm - N/A   Mostly Cloudy
3:55 AM 32.0 °F - 30.2 °F 93% 30.15 in 10.0 mi Calm Calm - N/A   Scattered Clouds
4:15 AM 32.0 °F - 30.2 °F 93% 30.15 in 7.0 mi Calm Calm - N/A   Clear
4:35 AM 30.9 °F - 29.8 °F 96% 30.14 in 4.0 mi Calm Calm - N/A   Clear
4:55 AM 29.7 °F 26.1 °F 28.4 °F 95% 30.14 in 5.0 mi WSW 3.5 mph - N/A   Clear
5:15 AM 27.7 °F 23.8 °F 26.2 °F 94% 30.13 in 5.0 mi WSW 3.5 mph - N/A   Clear
5:35 AM 27.3 °F 19.9 °F 26.2 °F 96% 30.14 in 5.0 mi West 6.9 mph - N/A   Clear
5:55 AM 26.6 °F 21.2 °F 25.7 °F 96% 30.14 in 5.0 mi WSW 4.6 mph - N/A   Clear
6:15 AM 26.2 °F 18.6 °F 25.2 °F 96% 30.15 in 4.0 mi WSW 6.9 mph - N/A   Clear
6:35 AM 25.5 °F 18.7 °F 24.1 °F 94% 30.15 in 5.0 mi WSW 5.8 mph - N/A   Clear
6:55 AM 25.3 °F 18.5 °F 23.9 °F 94% 30.15 in 4.0 mi WSW 5.8 mph - N/A   Clear
7:15 AM 24.6 °F 15.8 °F 23.5 °F 96% 30.15 in 4.0 mi WSW 8.1 mph - N/A   Clear
7:35 AM 25.0 °F 18.1 °F 23.9 °F 96% 30.16 in 3.0 mi WSW 5.8 mph - N/A   Clear
7:55 AM 25.5 °F 19.9 °F 24.4 °F 96% 30.16 in 3.0 mi SW 4.6 mph - N/A   Clear
8:15 AM 26.8 °F 21.4 °F 25.7 °F 96% 30.17 in 4.0 mi SSW 4.6 mph - N/A   Clear
8:35 AM 30.0 °F 25.2 °F 29.1 °F 96% 30.17 in 3.0 mi SW 4.6 mph - N/A   Clear
8:55 AM 32.0 °F 28.7 °F 31.3 °F 97% 30.17 in 4.0 mi SW 3.5 mph - N/A   Clear
9:15 AM 34.0 °F 27.2 °F 32.2 °F 93% 30.17 in 5.0 mi WSW 8.1 mph - N/A   Clear
9:35 AM 36.5 °F 29.7 °F 32.9 °F 87% 30.18 in 10.0 mi WSW 9.2 mph - N/A   Clear
9:55 AM 39.0 °F 32.8 °F 33.4 °F 80% 30.18 in 10.0 mi West 9.2 mph - N/A   Clear
10:15 AM 41.9 °F 36.9 °F 34.0 °F 73% 30.18 in 10.0 mi West 8.1 mph - N/A   Clear
10:35 AM 45.1 °F 42.0 °F 35.4 °F 69% 30.18 in 10.0 mi WNW 5.8 mph - N/A   Clear
10:55 AM 46.2 °F 44.1 °F 34.9 °F 65% 30.18 in 10.0 mi NW 4.6 mph - N/A   Clear
11:35 AM 50.4 °F - 34.3 °F 54% 30.16 in 10.0 mi Calm Calm - N/A   Clear
11:55 AM 52.7 °F - 33.6 °F 48% 30.17 in 10.0 mi Calm Calm - N/A   Clear
12:15 PM 55.4 °F - 34.3 °F 45% 30.17 in 10.0 mi NNW 5.8 mph - N/A   Clear
12:35 PM 57.0 °F - 34.7 °F 43% 30.17 in 10.0 mi NW 5.8 mph - N/A   Clear
12:55 PM 57.4 °F - 33.8 °F 41% 30.16 in 10.0 mi North 6.9 mph - N/A   Clear
1:15 PM 58.6 °F - 33.8 °F 39% 30.15 in 10.0 mi North 5.8 mph - N/A   Clear
1:35 PM 60.6 °F - 33.6 °F 36% 30.15 in 10.0 mi NNE 8.1 mph - N/A   Clear
1:55 PM 60.8 °F - 33.4 °F 36% 30.15 in 10.0 mi NE 4.6 mph - N/A   Clear
2:15 PM 62.6 °F - 29.7 °F 29% 30.14 in 10.0 mi North 4.6 mph - N/A   Clear
2:35 PM 63.1 °F - 28.2 °F 27% 30.14 in 10.0 mi North 4.6 mph - N/A   Clear
2:55 PM 64.8 °F - 28.9 °F 26% 30.13 in 10.0 mi NNE 6.9 mph 16.1 mph N/A   Clear
3:15 PM 64.4 °F - 28.4 °F 26% 30.12 in 10.0 mi NE 5.8 mph - N/A   Clear
3:35 PM 66.0 °F - 28.4 °F 24% 30.11 in 10.0 mi ENE 6.9 mph - N/A   Clear
3:55 PM 65.1 °F - 25.5 °F 22% 30.11 in 10.0 mi NNE 6.9 mph - N/A   Clear
4:15 PM 66.0 °F - 27.5 °F 23% 30.11 in 10.0 mi East 6.9 mph - N/A   Clear
4:35 PM 66.4 °F - 27.5 °F 23% 30.11 in 10.0 mi NNE 8.1 mph - N/A   Clear
4:55 PM 67.1 °F - 27.3 °F 22% 30.11 in 10.0 mi North 4.6 mph - N/A   Clear
5:15 PM 66.9 °F - 27.7 °F 23% 30.11 in 10.0 mi Calm Calm - N/A   Clear
5:35 PM 66.9 °F - 29.3 °F 24% 30.10 in 10.0 mi ESE 6.9 mph - N/A   Clear
5:55 PM 67.1 °F - 30.9 °F 26% 30.11 in 10.0 mi East 8.1 mph - N/A   Clear
6:15 PM 66.7 °F - 29.1 °F 24% 30.11 in 10.0 mi ENE 8.1 mph - N/A   Clear
6:35 PM 66.4 °F - 31.3 °F 27% 30.11 in 10.0 mi ESE 9.2 mph - N/A   Clear
6:55 PM 64.8 °F - 31.6 °F 29% 30.11 in 10.0 mi ESE 8.1 mph - N/A   Clear
7:15 PM 63.7 °F - 32.2 °F 31% 30.11 in 10.0 mi East 9.2 mph - N/A   Clear
7:35 PM 61.7 °F - 30.6 °F 31% 30.11 in 10.0 mi ESE 9.2 mph - N/A   Clear
7:55 PM 59.5 °F - 28.4 °F 31% 30.11 in 10.0 mi SE 9.2 mph - N/A   Clear
8:15 PM 55.2 °F - 28.2 °F 36% 30.11 in 10.0 mi SE 9.2 mph - N/A   Clear
8:35 PM 52.9 °F - 28.2 °F 39% 30.10 in 10.0 mi ESE 9.2 mph - N/A   Clear
8:55 PM 53.4 °F - 29.3 °F 40% 30.11 in 10.0 mi ESE 9.2 mph - N/A   Clear
9:15 PM 52.2 °F - 29.3 °F 41% 30.11 in 10.0 mi SE 9.2 mph - N/A   Clear
9:35 PM 50.7 °F - 28.2 °F 42% 30.12 in 10.0 mi SE 9.2 mph - N/A   Clear
9:55 PM 48.9 °F - 29.5 °F 47% 30.12 in 10.0 mi SE 10.4 mph - N/A   Clear
10:15 PM 47.7 °F - 28.4 °F 47% 30.13 in 10.0 mi ESE 10.4 mph - N/A   Clear
10:35 PM 47.7 °F - 29.1 °F 49% 30.13 in 10.0 mi ESE 9.2 mph - N/A   Clear
10:55 PM 44.4 °F 39.5 °F 27.3 °F 51% 30.14 in 10.0 mi ESE 9.2 mph - N/A   Clear
11:15 PM 43.7 °F 38.1 °F 28.2 °F 54% 30.14 in 10.0 mi ESE 10.4 mph - N/A   Clear
11:35 PM 45.1 °F 39.9 °F 27.5 °F 50% 30.13 in 10.0 mi SE 10.4 mph - N/A   Clear
11:55 PM 43.2 °F 37.9 °F 27.0 °F 53% 30.14 in 10.0 mi SE 9.2 mph - N/A   Clear